Regional Weather Roundup
Issued by NWS Charleston, SC

Current Version | Previous Version | Graphics & Text | Print | Product List | Glossary On
Versions: 1 2 3 4 5 6 7 8 9 10 11 12 13 14 15 16 17 18 19 20 21 22 23 24 25 26 27 28 29 30 31 32 33 34 35 36 37 38 39 40 41 42 43 44 45 46 47 48 49 50
000
ASUS42 KCHS 231412
RWRCHS

Regional Weather Roundup
National Weather Service Charleston SC
900 AM EST TUE JAN 23 2018

NOTE: "fair" indicates few or no clouds below 12,000 feet with no
significant weather and/or obstructions to visibility.

Not all stations are quality controlled. Use data with caution,
especially dewpoint observations.

SCZ027-030-031-034>040-042>050-231500-
...Southeast South Carolina...

CITY           SKY/WX    TMP DP  RH WIND       PRES   REMARKS
N Charleston   CLOUDY    65  62  90 SW15      29.94R
Waterfront Prk   N/A     60  60 100 SW9G16    29.79S
Mount Pleasant CLOUDY    64  63  94 SW14G23   29.94R
Johns Island   CLOUDY    63  63 100 SW14      29.95R
Pinopolis        N/A     64  63  94 SW12      29.82R
Moncks Corner  CLOUDY    64  63  94 SW10G20   29.92R
Summerville    CLOUDY    64  63  94 SW6G16    29.93R
Beaufort MCAS  CLOUDY    64  63  96 S6        29.95R
Beaufort Arpt  CLOUDY    61  59  94 SW6       29.95R FOG
Hilton Head Is CLOUDY    61  59  94 SW12      29.97R FOG
Walterboro     CLOUDY    64  63  94 SW9       29.94R
Allendale      CLOUDY    66  63  88 SW8       29.91S

...Southern Midlands and Pee Dee...

CITY           SKY/WX    TMP DP  RH WIND       PRES   REMARKS
Georgetown     CLOUDY    64  64 100 SW16G26   29.92S
Kingstree      CLOUDY    64  63  94 SW8       29.89S
Orangeburg     PTSUNNY   66  61  84 SW15      29.89S
Barnwell         N/A     68  64  88 SW12      29.91R
Aiken          PTSUNNY   61  61 100 SW9       29.92R
Manning        CLOUDY    64  59  82 MISG      29.90S
Columbia       PTSUNNY   67  63  87 SW10G23   29.86R
Sumter         PTSUNNY   65  61  86 SW17G24   29.85R
Florence       CLOUDY    67  63  87 SW15      29.86S
Myrtle Beach   CLOUDY    67  63  87 SW10G20   29.91S
N Myrtle Beach CLOUDY    60  59  96 SW16      29.90S

$$

GAZ063-065-086>088-099>101-113>116-118-119-134>141-150-231500-
...Southeast Georgia...

CITY           SKY/WX    TMP DP  RH WIND       PRES   REMARKS
Savannah Arpt  CLOUDY    68  64  87 SW12      29.96R
Hunter AAF     CLOUDY    67  63  87 SW8       29.94R
Fort Stewart   CLOUDY    68  62  82 SW12      29.95R
Statesboro     CLOUDY    66  62  86 SW10      29.95S
Sylvania       LGT RAIN  66  65  97 SW8       29.94S
Claxton        CLOUDY    67  64  91 S9        29.96R

...CSRA, Central and far Southeast Georgia...

CITY           SKY/WX    TMP DP  RH WIND       PRES   REMARKS
Thomson        CLOUDY    56  43  60 NW10G18   30.00R
Augusta-Bush   CLOUDY    65  60  84 W14G20    29.91R
Augusta-Daniel CLOUDY    63  55  75 W10G22    29.93R
Swainsboro     CLOUDY    64  63  94 SW9       29.95S
Vidalia        CLOUDY    66  64  94 SW7       29.96S
Eastman        CLOUDY    58  28  31 W10G21    30.03R
Hazlehurst     PTSUNNY   66  63  88 SW8       29.97R
Alma           CLOUDY    66  63  90 SW7       29.98R
Waycross       CLOUDY    67  64  90 SW9       29.99R
Jesup          CLOUDY    70  63  78 SW8       29.98
Baxley         CLOUDY    63  63 100 SW5       29.97S
Brunswick      CLOUDY    66  63  88 SW12      29.99R
Saint Simons   CLOUDY    65  65 100 SW9       29.99R

$$

SCZ027-028-034-036>038-045-046-048>050-GAZ119-141-231500-
...Lake and Supplemental Coastal Observations...

STATION/POSITION TIME  TEMP    WIND        PRES    WAVE   SWELL
                       AIR SEA DIR/SP/G            HT/PER HT/PER/DIR
                 (UTC) (F)     (DEG/KT/KT) (MB)    (FT/S) (FT/S/D)
Winyah Bay       1245   65     230/ 11     1013.0
Lake Murray      1320   63     230/ 12/ 17 1010.2R
ACE Basin NERRS  1245   58        CALM     1013.0
Fort Pulaski     1336   58 48  210/  8/ 11 1014.8R
Sapelo Island    1300   64     210/ 11     1015.0

$$

ANZ835-935-AMZ111-154-330-350-352-354-370-450-454-472-231500-
...C-MAN and Buoy Observations...

STATION/POSITION TIME  TEMP    WIND        PRES    WAVE   SWELL
                       AIR SEA DIR/SP/G            HT/PER HT/PER/DIR
                 (UTC) (F)     (DEG/KT/KT) (MB)    (FT/S) (FT/S/D)
Buoy 41004       1350   68 69  230/ 25/ 31 1013.6R   7/ 7
Buoy 41008       1350   56 51  180/ 12/ 14 1015.0R   4/ 6   2/ 90/10
Folly Beach CMAN 1400   56     220/ 15/ 18 1014.7R
Capers Nearshore 1308   54 53  230/ 16/ 21 1013.1F
Fripp Nearshore  1308   51 48  210/ 14/ 19 1012.9F


STATION/POSITION TIME  TEMP    WIND        PRES    WAVE   SWELL
                       AIR SEA DIR/SP/G            HT/PER HT/PER/DIR
                 (UTC) (F)     (DEG/KT/KT) (MB)    (FT/S) (FT/S/D)
5E St. Marys GA  1330      50                N/A     3/ 6
Frying Pan Buoy  1350   67 65  220/ 23/ 29 1013.4R   7/ 7
Buoy 41025       1350   72 70  190/ 29/ 39 1013.4F  10/ 7
Cape Lookout NC  1300          180/ 14/ 14 1013.1F
Buoy 41002       1350   71 70  180/ 16/ 17 1018.9R   6/ 6   2/ 90/ 9
Buoy 41010       NOT AVBL
St Augustine FL  1400   68 53  210/  9/ 11 1016.6S


$$




USA.gov is the U.S. government's official web portal to all federal, state and local government web resources and services.